• In Hungary
  • List of Countries
  • For 7 days
  • Water Temperature
  • Satellite Maps
  • Weather Map
  • News
  • Weather Widgets
  • user-avatar
    Login

    Hourly Weather Ivanovskiy

    Today, 19 January, Friday

    Time Temperature Precipitation Wind Pressure Humidity
    00:00 -14°C° 0 mm 5 mps 750 mmHg 67%
    01:00 -15°C° 0 mm 5 mps 750 mmHg 67%
    02:00 -15°C° 0 mm 5 mps 750 mmHg 66%
    03:00 -16°C° 0 mm 4 mps 750 mmHg 64%
    04:00 -16°C° 0 mm 4 mps 750 mmHg 64%
    05:00 -17°C° 0 mm 5 mps 750 mmHg 64%
    06:00 -17°C° 0 mm 5 mps 750 mmHg 64%
    07:00 -17°C° 0 mm 5 mps 750 mmHg 65%
    08:00 -17°C° 0 mm 5 mps 750 mmHg 66%
    09:00 -18°C° 0 mm 5 mps 750 mmHg 67%
    10:00 -17°C° 0 mm 5 mps 750 mmHg 66%
    11:00 -15°C° 0 mm 5 mps 750 mmHg 64%
    12:00 -15°C° 0 mm 6 mps 750 mmHg 63%
    13:00 -15°C° 0 mm 6 mps 750 mmHg 64%
    14:00 -15°C° 0 mm 6 mps 750 mmHg 64%
    15:00 -15°C° 0 mm 6 mps 750 mmHg 67%
    16:00 -15°C° 0 mm 6 mps 751 mmHg 70%
    17:00 -16°C° 0 mm 6 mps 751 mmHg 73%
    18:00 -15°C° 0 mm 5 mps 751 mmHg 76%
    19:00 -15°C° 0 mm 5 mps 751 mmHg 78%
    20:00 -15°C° 0 mm 5 mps 750 mmHg 80%
    21:00 -17°C° 0 mm 6 mps 750 mmHg 83%
    22:00 -17°C° 0 mm 6 mps 750 mmHg 84%
    23:00 -17°C° 0 mm 6 mps 750 mmHg 85%

    Tomorrow, 20 January, Saturday

    Time Temperature Precipitation Wind Pressure Humidity
    00:00 -17°C° 0 mm 6 mps 749 mmHg 86%
    01:00 -16°C° 0.2 mm 6 mps 749 mmHg 87%
    02:00 -16°C° 0.2 mm 6 mps 749 mmHg 89%
    03:00 -15°C° 0.2 mm 6 mps 748 mmHg 90%
    04:00 -14°C° 0.6 mm 6 mps 748 mmHg 91%
    05:00 -14°C° 0.6 mm 6 mps 748 mmHg 92%
    06:00 -12°C° 0.6 mm 6 mps 747 mmHg 92%
    07:00 -12°C° 0.5 mm 6 mps 747 mmHg 92%
    08:00 -12°C° 0.5 mm 6 mps 747 mmHg 91%
    09:00 -12°C° 0.5 mm 6 mps 747 mmHg 91%
    10:00 -11°C° 0.2 mm 6 mps 747 mmHg 90%
    11:00 -11°C° 0.2 mm 6 mps 747 mmHg 89%
    12:00 -10°C° 0.2 mm 6 mps 747 mmHg 88%
    13:00 -10°C° 0.1 mm 6 mps 746 mmHg 89%
    14:00 -8°C° 0.1 mm 5 mps 746 mmHg 89%
    15:00 -8°C° 0.1 mm 5 mps 746 mmHg 89%
    16:00 -8°C° 0.1 mm 5 mps 746 mmHg 90%
    17:00 -7°C° 0.1 mm 5 mps 746 mmHg 91%
    18:00 -7°C° 0.1 mm 5 mps 747 mmHg 92%
    19:00 -7°C° 0.1 mm 5 mps 747 mmHg 92%
    20:00 -6°C° 0.1 mm 5 mps 747 mmHg 92%
    21:00 -6°C° 0.1 mm 5 mps 747 mmHg 93%
    22:00 -6°C° 0.2 mm 5 mps 747 mmHg 93%
    23:00 -6°C° 0.2 mm 5 mps 747 mmHg 94%

    Day after tomorrow, 21 January, Sunday

    Time Temperature Precipitation Wind Pressure Humidity
    00:00 -7°C° 0.2 mm 4 mps 747 mmHg 94%
    01:00 -5°C° 0.2 mm 4 mps 747 mmHg 94%
    02:00 -5°C° 0.2 mm 4 mps 747 mmHg 94%
    03:00 -5°C° 0.2 mm 4 mps 747 mmHg 94%
    04:00 -5°C° 0.2 mm 4 mps 747 mmHg 94%
    05:00 -5°C° 0.2 mm 4 mps 747 mmHg 94%
    06:00 -5°C° 0.2 mm 4 mps 747 mmHg 94%
    07:00 -5°C° 0.1 mm 4 mps 747 mmHg 94%
    08:00 -7°C° 0.1 mm 4 mps 747 mmHg 94%
    09:00 -7°C° 0.1 mm 4 mps 747 mmHg 93%
    10:00 -5°C° 0.2 mm 4 mps 746 mmHg 93%
    11:00 -4°C° 0.2 mm 4 mps 746 mmHg 93%
    12:00 -4°C° 0.2 mm 4 mps 746 mmHg 93%
    13:00 -4°C° 1.2 mm 5 mps 745 mmHg 94%
    14:00 -4°C° 1.2 mm 5 mps 745 mmHg 94%
    15:00 -4°C° 1.2 mm 6 mps 744 mmHg 94%
    16:00 -4°C° 1.3 mm 6 mps 744 mmHg 94%
    17:00 -4°C° 1.3 mm 7 mps 743 mmHg 94%
    18:00 -4°C° 1.3 mm 7 mps 742 mmHg 94%
    19:00 -6°C° 1.5 mm 7 mps 742 mmHg 94%
    20:00 -6°C° 1.5 mm 7 mps 741 mmHg 94%
    21:00 -6°C° 1.5 mm 6 mps 741 mmHg 94%
    22:00 -6°C° 0.7 mm 6 mps 741 mmHg 94%
    23:00 -6°C° 0.7 mm 5 mps 741 mmHg 94%

    22 January, Monday

    Time Temperature Precipitation Wind Pressure Humidity
    00:00 -5°C° 0.7 mm 4 mps 741 mmHg 95%
    01:00 -5°C° 0.4 mm 4 mps 741 mmHg 95%
    02:00 -5°C° 0.4 mm 4 mps 742 mmHg 95%
    03:00 -5°C° 0.4 mm 4 mps 742 mmHg 95%
    04:00 -5°C° 0 mm 4 mps 743 mmHg 93%
    05:00 -7°C° 0 mm 5 mps 744 mmHg 92%
    06:00 -7°C° 0 mm 5 mps 744 mmHg 91%
    07:00 -8°C° 0 mm 5 mps 745 mmHg 91%
    08:00 -8°C° 0 mm 4 mps 746 mmHg 91%
    09:00 -8°C° 0 mm 4 mps 747 mmHg 91%
    10:00 -7°C° 0 mm 3 mps 748 mmHg 90%
    11:00 -7°C° 0 mm 3 mps 748 mmHg 90%
    12:00 -7°C° 0 mm 3 mps 749 mmHg 90%
    13:00 -6°C° 0 mm 2 mps 749 mmHg 90%
    14:00 -6°C° 0 mm 2 mps 750 mmHg 90%
    15:00 -6°C° 0 mm 2 mps 750 mmHg 91%
    16:00 -6°C° 0 mm 1 mps 750 mmHg 91%
    17:00 -7°C° 0 mm 1 mps 750 mmHg 92%
    18:00 -8°C° 0 mm 1 mps 751 mmHg 92%
    19:00 -8°C° 0 mm 1 mps 751 mmHg 92%
    20:00 -8°C° 0 mm 1 mps 751 mmHg 93%
    21:00 -8°C° 0 mm 1 mps 752 mmHg 93%
    22:00 -8°C° 0 mm 1 mps 752 mmHg 93%
    23:00 -9°C° 0 mm 2 mps 752 mmHg 93%

    23 January, Tuesday

    Time Temperature Precipitation Wind Pressure Humidity
    00:00 -9°C° 0 mm 2 mps 752 mmHg 94%
    01:00 -9°C° 0 mm 2 mps 752 mmHg 94%
    02:00 -10°C° 0 mm 3 mps 752 mmHg 94%
    03:00 -10°C° 0 mm 3 mps 752 mmHg 94%
    04:00 -10°C° 0 mm 3 mps 752 mmHg 94%
    05:00 -10°C° 0 mm 3 mps 752 mmHg 94%
    06:00 -10°C° 0 mm 3 mps 751 mmHg 94%
    07:00 -11°C° 0.1 mm 4 mps 752 mmHg 94%
    08:00 -11°C° 0.1 mm 4 mps 752 mmHg 95%
    09:00 -11°C° 0.1 mm 4 mps 752 mmHg 95%
    10:00 -10°C° 0.2 mm 4 mps 752 mmHg 94%
    11:00 -10°C° 0.2 mm 4 mps 751 mmHg 94%
    12:00 -10°C° 0.2 mm 5 mps 751 mmHg 94%
    13:00 -10°C° 0.3 mm 5 mps 751 mmHg 94%
    14:00 -10°C° 0.3 mm 5 mps 751 mmHg 94%
    15:00 -10°C° 0.3 mm 5 mps 751 mmHg 94%
    16:00 -10°C° 0.3 mm 5 mps 752 mmHg 94%
    17:00 -10°C° 0.3 mm 5 mps 752 mmHg 94%
    18:00 -10°C° 0.3 mm 5 mps 752 mmHg 94%
    19:00 -10°C° 0.3 mm 5 mps 752 mmHg 94%
    20:00 -10°C° 0.3 mm 5 mps 752 mmHg 94%
    21:00 -11°C° 0.3 mm 5 mps 752 mmHg 94%
    22:00 -11°C° 0.2 mm 5 mps 752 mmHg 94%
    23:00 -11°C° 0.2 mm 5 mps 752 mmHg 94%

    24 January, Wednesday

    Time Temperature Precipitation Wind Pressure Humidity
    00:00 -12°C° 0.2 mm 5 mps 753 mmHg 94%
    01:00 -12°C° 0.2 mm 5 mps 753 mmHg 94%
    02:00 -12°C° 0.2 mm 5 mps 753 mmHg 94%
    03:00 -12°C° 0.2 mm 5 mps 753 mmHg 94%
    04:00 -13°C° 0.2 mm 5 mps 754 mmHg 94%
    05:00 -13°C° 0.2 mm 5 mps 754 mmHg 93%
    06:00 -13°C° 0.2 mm 5 mps 754 mmHg 93%
    07:00 -13°C° 0.1 mm 5 mps 754 mmHg 93%
    08:00 -14°C° 0.1 mm 5 mps 755 mmHg 93%
    09:00 -14°C° 0.1 mm 5 mps 755 mmHg 93%
    10:00 -14°C° 0.1 mm 4 mps 755 mmHg 92%
    11:00 -12°C° 0.1 mm 4 mps 756 mmHg 91%
    12:00 -12°C° 0.1 mm 4 mps 756 mmHg 91%
    13:00 -12°C° 0.1 mm 4 mps 756 mmHg 91%
    14:00 -12°C° 0.1 mm 4 mps 756 mmHg 90%
    15:00 -12°C° 0.1 mm 4 mps 756 mmHg 90%
    16:00 -12°C° 0 mm 4 mps 757 mmHg 91%
    17:00 -14°C° 0 mm 4 mps 757 mmHg 93%
    18:00 -13°C° 0 mm 3 mps 757 mmHg 94%
    19:00 -14°C° 0 mm 3 mps 758 mmHg 94%
    20:00 -14°C° 0 mm 3 mps 758 mmHg 95%
    21:00 -15°C° 0 mm 3 mps 758 mmHg 96%
    22:00 -15°C° 0 mm 3 mps 758 mmHg 96%
    23:00 -15°C° 0 mm 3 mps 759 mmHg 96%
    Show more